| time (UTC) | temp F | wind direction | speed knots | gust knots | rain 1hr in | rain 24hr in | rain mn in | humidity % | barometer mb |
| 20260503034306 | 73 | 251 | 0.0 | 0.9 | 0.00 | 0.40 | 0.40 | 92 | 1014.0 |
| 20260503033804 | 73 | 254 | 0.0 | 0.0 | 0.00 | 0.40 | 0.40 | 92 | 1014.0 |
| 20260503033304 | 73 | 252 | 0.0 | 0.0 | 0.00 | 0.40 | 0.40 | 92 | 1013.7 |
| 20260503032802 | 73 | 252 | 0.0 | 0.0 | 0.00 | 0.40 | 0.40 | 92 | 1013.5 |
| 20260503032304 | 73 | 252 | 0.0 | 0.0 | 0.01 | 0.40 | 0.40 | 92 | 1013.2 |
| 20260503031803 | 73 | 252 | 0.0 | 0.9 | 0.02 | 0.40 | 0.40 | 92 | 1013.0 |
| 20260503031304 | 73 | 264 | 0.0 | 1.7 | 0.03 | 0.40 | 0.40 | 92 | 1012.8 |
| 20260503030803 | 73 | 266 | 0.0 | 1.7 | 0.04 | 0.40 | 0.40 | 92 | 1013.1 |
| 20260503030304 | 73 | 269 | 0.0 | 0.0 | 0.05 | 0.40 | 0.40 | 92 | 1013.2 |
| 20260503025802 | 73 | 269 | 0.0 | 0.0 | 0.05 | 0.35 | 0.40 | 92 | 1013.2 |
| 20260503025552 | 73 | 265 | 0.0 | 0.0 | 0.05 | 0.35 | 0.40 | 92 | 1013.0 |
| 20260503024801 | 73 | 264 | 0.0 | 0.0 | 0.05 | 0.35 | 0.40 | 92 | 1012.9 |
| 20260503024259 | 73 | 197 | 0.0 | 3.5 | 0.05 | 0.35 | 0.40 | 92 | 1013.0 |
| 20260503023757 | 73 | 180 | 0.0 | 3.5 | 0.05 | 0.35 | 0.40 | 92 | 1012.3 |
| 20260503023257 | 73 | 193 | 0.9 | 2.6 | 0.05 | 0.35 | 0.40 | 92 | 1011.8 |
| 20260503022753 | 74 | 178 | 0.0 | 2.6 | 0.05 | 0.35 | 0.39 | 92 | 1012.2 |
| 20260503022251 | 74 | 206 | 0.0 | 0.9 | 0.04 | 0.35 | 0.39 | 92 | 1012.6 |
| 20260503022052 | 74 | 214 | 0.0 | 0.9 | 0.03 | 0.35 | 0.38 | 92 | 1013.1 |
| 20260503021614 | 74 | 0.0 | 0.0 | 0.02 | 0.35 | 0.37 | 92 | 1013.0 | |
| 20260503020749 | 74 | 0.0 | 3.5 | 0.01 | 0.35 | 0.36 | 92 | 1013.2 | |
| 20260503020251 | 74 | 231 | 0.9 | 5.2 | 0.00 | 0.35 | 0.35 | 92 | 1013.2 |
| 20260503015749 | 74 | 235 | 1.7 | 5.2 | 0.00 | 0.35 | 0.35 | 92 | 1013.2 |
| 20260503015250 | 74 | 0.0 | 0.0 | 0.00 | 0.35 | 0.35 | 92 | 1013.1 | |
| 20260503014749 | 74 | 0.0 | 0.0 | 0.00 | 0.35 | 0.35 | 92 | 1013.0 | |
| 20260503014246 | 74 | 0.0 | 0.0 | 0.00 | 0.35 | 0.35 | 92 | 1012.7 | |
| 20260503014045 | 74 | 0.0 | 4.3 | 0.00 | 0.35 | 0.35 | 92 | 1012.0 | |
| 20260503013540 | 74 | 164 | 0.9 | 4.3 | 0.00 | 0.35 | 0.35 | 92 | 1011.6 |
| 20260503012744 | 74 | 178 | 0.0 | 2.6 | 0.00 | 0.35 | 0.35 | 92 | 1012.1 |
| 20260503012248 | 74 | 231 | 0.0 | 4.3 | 0.00 | 0.35 | 0.35 | 92 | 1012.5 |
| 20260503011733 | 74 | 217 | 1.7 | 4.3 | 0.00 | 0.35 | 0.35 | 92 | 1012.6 |
| 20260503011231 | 74 | 197 | 0.0 | 2.6 | 0.00 | 0.35 | 0.35 | 92 | 1012.4 |
| 20260503010735 | 74 | 175 | 0.0 | 1.7 | 0.01 | 0.35 | 0.35 | 92 | 1012.2 |
| 20260503010525 | 73 | 172 | 0.0 | 0.9 | 0.02 | 0.35 | 0.35 | 92 | 1012.3 |
| 20260503005733 | 73 | 169 | 0.0 | 0.9 | 0.02 | 0.33 | 0.35 | 92 | 1012.3 |
| 20260503005232 | 73 | 169 | 0.0 | 0.0 | 0.02 | 0.33 | 0.35 | 92 | 1012.3 |
| 20260503005025 | 73 | 169 | 0.0 | 0.0 | 0.02 | 0.33 | 0.35 | 92 | 1012.2 |
| 20260503004234 | 73 | 169 | 0.0 | 0.0 | 0.02 | 0.33 | 0.35 | 92 | 1012.5 |
| 20260503003728 | 73 | 169 | 0.0 | 0.0 | 0.02 | 0.33 | 0.35 | 92 | 1012.2 |
| 20260503003227 | 73 | 169 | 0.0 | 0.0 | 0.03 | 0.33 | 0.35 | 91 | 1012.3 |
| 20260503002728 | 73 | 169 | 0.0 | 0.0 | 0.06 | 0.33 | 0.35 | 91 | 1012.3 |
| 20260503002228 | 73 | 169 | 0.0 | 0.0 | 0.06 | 0.33 | 0.35 | 91 | 1012.2 |
| 20260503001734 | 73 | 169 | 0.0 | 0.0 | 0.06 | 0.33 | 0.35 | 91 | 1012.1 |
| 20260503001228 | 73 | 169 | 0.0 | 0.0 | 0.06 | 0.33 | 0.35 | 91 | 1012.0 |
| 20260503000728 | 73 | 169 | 0.0 | 0.0 | 0.05 | 0.33 | 0.34 | 91 | 1012.3 |
| 20260503000228 | 73 | 169 | 0.0 | 0.9 | 0.04 | 0.33 | 0.33 | 91 | 1012.3 |
| 20260503000030 | 73 | 61 | 0.0 | 1.7 | 0.04 | 0.29 | 0.33 | 91 | 1012.0 |
| 20260502235225 | 74 | 56 | 0.0 | 1.7 | 0.04 | 0.29 | 0.33 | 91 | 1011.5 |
| 20260502234726 | 74 | 47 | 0.0 | 1.7 | 0.04 | 0.29 | 0.33 | 91 | 1011.7 |
| 20260502234221 | 75 | 30 | 0.0 | 0.0 | 0.04 | 0.29 | 0.33 | 91 | 1012.3 |
| 20260502233723 | 75 | 30 | 0.0 | 0.0 | 0.04 | 0.29 | 0.33 | 91 | 1012.3 |
| 20260502233205 | 75 | 289 | 0.0 | 0.0 | 0.03 | 0.29 | 0.32 | 91 | 1012.3 |
| 20260502233007 | 75 | 278 | 0.0 | 0.0 | 0.00 | 0.29 | 0.29 | 91 | 1012.6 |
| 20260502232514 | 75 | 272 | 0.0 | 0.0 | 0.00 | 0.29 | 0.29 | 90 | 1012.7 |
| 20260502231703 | 75 | 309 | 0.0 | 0.0 | 0.00 | 0.29 | 0.29 | 91 | 1012.5 |
| 20260502231203 | 75 | 312 | 0.0 | 0.0 | 0.04 | 0.29 | 0.29 | 91 | 1012.4 |
| 20260502230706 | 75 | 312 | 0.0 | 0.0 | 0.29 | 0.29 | 0.29 | 91 | 1012.4 |
| 20260502230204 | 75 | 320 | 0.0 | 0.0 | 0.29 | 0.29 | 0.29 | 91 | 1012.3 |
| 20260502225702 | 75 | 313 | 0.0 | 2.6 | 0.29 | 0.00 | 0.29 | 90 | 1012.2 |
| 20260502225203 | 75 | 329 | 0.0 | 2.6 | 0.29 | 0.00 | 0.29 | 90 | 1012.1 |
| 20260502224703 | 75 | 295 | 0.0 | 8.7 | 0.29 | 0.00 | 0.29 | 90 | 1012.0 |
| 20260502224515 | 75 | 312 | 2.6 | 9.6 | 0.29 | 0.00 | 0.29 | 90 | 1012.0 |
| 20260502223703 | 75 | 344 | 2.6 | 9.6 | 0.29 | 0.00 | 0.29 | 90 | 1012.0 |
| 20260502223204 | 75 | 321 | 3.5 | 7.8 | 0.29 | 0.00 | 0.29 | 90 | 1012.0 |
| 20260502222705 | 75 | 317 | 0.0 | 0.9 | 0.29 | 0.00 | 0.29 | 89 | 1012.0 |
| 20260502222205 | 75 | 314 | 0.0 | 5.2 | 0.29 | 0.00 | 0.29 | 88 | 1012.2 |
| 20260502222023 | 75 | 326 | 1.7 | 20.9 | 0.29 | 0.00 | 0.29 | 84 | 1012.0 |
| 20260502221201 | 78 | 341 | 4.3 | 20.9 | 0.25 | 0.00 | 0.23 | 78 | 1011.7 |
| 20260502220700 | 82 | 296 | 6.1 | 10.4 | 0.00 | 0.00 | 0.00 | 81 | 1012.0 |
| 20260502220159 | 83 | 265 | 7.8 | 11.3 | 0.00 | 0.00 | 0.00 | 81 | 1010.8 |
| 20260502215659 | 83 | 231 | 7.8 | 11.3 | 0.00 | 0.00 | 0.00 | 80 | 1010.7 |
| 20260502215201 | 83 | 262 | 7.0 | 14.8 | 0.00 | 0.00 | 0.00 | 80 | 1010.9 |
| 20260502214656 | 83 | 206 | 6.1 | 14.8 | 0.00 | 0.00 | 0.00 | 79 | 1010.8 |
| 20260502214158 | 83 | 244 | 6.1 | 11.3 | 0.00 | 0.00 | 0.00 | 79 | 1010.9 |
| 20260502213658 | 83 | 300 | 4.3 | 13.0 | 0.00 | 0.00 | 0.00 | 78 | 1011.1 |
| 20260502213308 | 83 | 233 | 1.7 | 11.3 | 0.00 | 0.00 | 0.00 | 79 | 1010.9 |
| 20260502213239 | 83 | 259 | 5.2 | 13.0 | 0.00 | 0.00 | 0.00 | 78 | 1011.1 |
| 20260502212138 | 83 | 259 | 4.3 | 11.3 | 0.00 | 0.00 | 0.00 | 78 | 1011.0 |
| 20260502211637 | 84 | 250 | 5.2 | 11.3 | 0.00 | 0.00 | 0.00 | 77 | 1010.9 |
| 20260502211136 | 84 | 250 | 6.1 | 13.0 | 0.00 | 0.00 | 0.00 | 76 | 1010.8 |
| 20260502210634 | 84 | 258 | 6.1 | 15.6 | 0.00 | 0.00 | 0.00 | 74 | 1010.7 |
| 20260502210132 | 84 | 247 | 7.0 | 15.6 | 0.00 | 0.00 | 0.00 | 73 | 1010.6 |
| 20260502205634 | 84 | 261 | 3.5 | 13.0 | 0.00 | 0.00 | 0.00 | 74 | 1010.6 |
| 20260502205431 | 84 | 264 | 7.8 | 13.0 | 0.00 | 0.00 | 0.00 | 73 | 1010.6 |
| 20260502204608 | 85 | 237 | 7.8 | 13.9 | 0.00 | 0.00 | 0.00 | 72 | 1010.7 |
| 20260502204106 | 85 | 298 | 5.2 | 13.9 | 0.00 | 0.00 | 0.00 | 72 | 1010.7 |
| 20260502203609 | 86 | 268 | 7.0 | 15.6 | 0.00 | 0.00 | 0.00 | 70 | 1010.6 |
| 20260502203106 | 87 | 268 | 8.7 | 16.5 | 0.00 | 0.00 | 0.00 | 69 | 1010.6 |
| 20260502202606 | 87 | 238 | 8.7 | 16.5 | 0.00 | 0.00 | 0.00 | 67 | 1010.5 |
| 20260502202104 | 88 | 243 | 7.0 | 17.4 | 0.00 | 0.00 | 0.00 | 68 | 1010.5 |
| 20260502201606 | 89 | 214 | 4.3 | 17.4 | 0.00 | 0.00 | 0.00 | 68 | 1010.6 |
| 20260502201408 | 89 | 264 | 6.1 | 12.2 | 0.00 | 0.00 | 0.00 | 69 | 1010.6 |
| 20260502200603 | 88 | 257 | 2.6 | 13.0 | 0.00 | 0.00 | 0.00 | 72 | 1010.5 |
| 20260502200107 | 87 | 245 | 7.8 | 17.4 | 0.00 | 0.00 | 0.00 | 71 | 1010.5 |
| 20260502195916 | 87 | 224 | 7.8 | 17.4 | 0.00 | 0.00 | 0.00 | 70 | 1010.6 |
| 20260502195101 | 87 | 247 | 12.2 | 17.4 | 0.00 | 0.00 | 0.00 | 71 | 1010.7 |
| 20260502195029 | 88 | 261 | 10.4 | 18.2 | 0.00 | 0.00 | 0.00 | 69 | 1010.7 |
| 20260502195022 | 87 | 254 | 8.7 | 18.2 | 0.00 | 0.00 | 0.00 | 70 | 1010.7 |
| 20260502193604 | 88 | 247 | 5.2 | 18.2 | 0.00 | 0.00 | 0.00 | 69 | 1010.7 |
| 20260502193104 | 88 | 220 | 11.3 | 17.4 | 0.00 | 0.00 | 0.00 | 67 | 1010.7 |
| 20260502192604 | 88 | 226 | 7.8 | 17.4 | 0.00 | 0.00 | 0.00 | 69 | 1010.8 |
| 20260502192103 | 88 | 255 | 8.7 | 17.4 | 0.00 | 0.00 | 0.00 | 70 | 1011.0 |
| 20260502191604 | 89 | 241 | 10.4 | 19.1 | 0.00 | 0.00 | 0.00 | 67 | 1011.1 |
| 20260502191104 | 89 | 248 | 1.7 | 19.1 | 0.00 | 0.00 | 0.00 | 70 | 1011.1 |
| 20260502190954 | 89 | 243 | 7.0 | 14.8 | 0.00 | 0.00 | 0.00 | 69 | 1011.1 |
| 20260502190112 | 88 | 265 | 8.7 | 14.8 | 0.00 | 0.00 | 0.00 | 69 | 1011.1 |
| 20260502185916 | 88 | 254 | 6.1 | 13.0 | 0.00 | 0.00 | 0.00 | 69 | 1011.2 |
| 20260502185409 | 88 | 245 | 7.0 | 16.5 | 0.00 | 0.00 | 0.00 | 70 | 1011.4 |
| 20260502184603 | 89 | 235 | 11.3 | 16.5 | 0.00 | 0.00 | 0.00 | 68 | 1011.3 |
| 20260502184104 | 88 | 240 | 7.0 | 13.9 | 0.00 | 0.00 | 0.00 | 70 | 1011.3 |
| 20260502183605 | 88 | 228 | 7.8 | 16.5 | 0.00 | 0.00 | 0.00 | 72 | 1011.3 |
| 20260502183103 | 88 | 268 | 10.4 | 18.2 | 0.00 | 0.00 | 0.00 | 72 | 1011.5 |
| 20260502182603 | 88 | 252 | 13.0 | 18.2 | 0.00 | 0.00 | 0.00 | 72 | 1011.7 |
| 20260502182101 | 88 | 237 | 9.6 | 15.6 | 0.00 | 0.00 | 0.00 | 71 | 1011.7 |
| 20260502181604 | 89 | 255 | 8.7 | 14.8 | 0.00 | 0.00 | 0.00 | 71 | 1011.7 |
| 20260502181104 | 88 | 276 | 3.5 | 14.8 | 0.00 | 0.00 | 0.00 | 73 | 1011.8 |
| 20260502180605 | 88 | 237 | 9.6 | 17.4 | 0.00 | 0.00 | 0.00 | 73 | 1011.9 |
| 20260502164031 | 88 | 252 | 8.7 | 19.1 | 0.00 | 0.00 | 0.00 | 71 | 1012.1 |
| 20260502163531 | 88 | 276 | 8.7 | 19.1 | 0.00 | 0.00 | 0.00 | 70 | 1012.0 |
| 20260502163034 | 89 | 231 | 6.1 | 15.6 | 0.00 | 0.00 | 0.00 | 70 | 1011.9 |
| 20260502162532 | 88 | 233 | 8.7 | 16.5 | 0.00 | 0.00 | 0.00 | 72 | 1011.9 |
| 20260502162030 | 88 | 227 | 12.2 | 19.1 | 0.00 | 0.00 | 0.00 | 70 | 1011.8 |
| 20260502161526 | 88 | 295 | 12.2 | 19.1 | 0.00 | 0.00 | 0.00 | 71 | 1011.9 |
| 20260502161029 | 88 | 268 | 9.6 | 18.2 | 0.00 | 0.00 | 0.00 | 69 | 1011.9 |
| 20260502160510 | 89 | 250 | 12.2 | 17.4 | 0.00 | 0.00 | 0.00 | 70 | 1011.7 |
| 20260502152245 | 88 | 212 | 12.2 | 17.4 | 0.00 | 0.00 | 0.00 | 70 | 1011.5 |
| 20260502151448 | 88 | 231 | 5.2 | 15.6 | 0.00 | 0.00 | 0.00 | 70 | 1011.5 |
| 20260502150948 | 87 | 223 | 8.7 | 18.2 | 0.00 | 0.00 | 0.00 | 69 | 1011.5 |
| 20260502150446 | 87 | 257 | 8.7 | 19.1 | 0.00 | 0.00 | 0.00 | 71 | 1011.2 |
| 20260502150257 | 87 | 212 | 11.3 | 22.6 | 0.00 | 0.00 | 0.00 | 70 | 1011.1 |
| 20260502130405 | 80 | 207 | 7.0 | 12.2 | 0.00 | 0.00 | 0.00 | 86 | 1010.8 |
| 20260502123351 | 76 | 193 | 1.7 | 7.8 | 0.00 | 0.00 | 0.00 | 91 | 1010.7 |
| 20260502122843 | 76 | 183 | 0.9 | 8.7 | 0.00 | 0.00 | 0.00 | 91 | 1010.7 |
| 20260502122346 | 75 | 186 | 4.3 | 8.7 | 0.00 | 0.00 | 0.00 | 92 | 1010.8 |
| 20260502121844 | 75 | 166 | 1.7 | 6.1 | 0.00 | 0.00 | 0.00 | 92 | 1010.8 |
| 20260502121344 | 74 | 166 | 0.0 | 2.6 | 0.00 | 0.00 | 0.00 | 92 | 1010.6 |
| 20260502120847 | 74 | 178 | 0.0 | 2.6 | 0.00 | 0.00 | 0.00 | 93 | 1010.6 |
| 20260502120343 | 73 | 173 | 0.0 | 2.6 | 0.00 | 0.00 | 0.00 | 93 | 1010.6 |
| 20260502115842 | 73 | 164 | 0.0 | 0.9 | 0.00 | 0.00 | 0.00 | 93 | 1010.7 |
| 20260502115341 | 72 | 162 | 0.0 | 0.0 | 0.00 | 0.00 | 0.00 | 93 | 1010.7 |
| 20260502114841 | 72 | 144 | 0.0 | 0.9 | 0.00 | 0.00 | 0.00 | 93 | 1010.6 |
| 20260502114344 | 71 | 166 | 0.0 | 2.6 | 0.00 | 0.00 | 0.00 | 93 | 1010.4 |
| 20260502113843 | 71 | 169 | 0.0 | 2.6 | 0.00 | 0.00 | 0.00 | 93 | 1010.6 |
| 20260502113343 | 70 | 154 | 0.0 | 0.0 | 0.00 | 0.00 | 0.00 | 93 | 1010.6 |
| 20260502112840 | 70 | 149 | 0.0 | 0.0 | 0.00 | 0.00 | 0.00 | 93 | 1010.5 |
| 20260502112341 | 70 | 149 | 0.0 | 0.0 | 0.00 | 0.00 | 0.00 | 93 | 1010.6 |
| 20260502111840 | 69 | 151 | 0.0 | 0.0 | 0.00 | 0.00 | 0.00 | 93 | 1010.6 |
| 20260502111641 | 69 | 151 | 0.0 | 0.0 | 0.00 | 0.00 | 0.00 | 93 | 1010.6 |
| 20260502110841 | 69 | 147 | 0.0 | 0.9 | 0.00 | 0.00 | 0.00 | 93 | 1010.6 |
| 20260502110343 | 69 | 147 | 0.0 | 0.9 | 0.00 | 0.00 | 0.00 | 93 | 1010.6 |
| 20260502105843 | 69 | 145 | 0.0 | 0.0 | 0.00 | 0.00 | 0.00 | 93 | 1010.5 |
| 20260502105340 | 69 | 145 | 0.0 | 0.0 | 0.00 | 0.00 | 0.00 | 93 | 1010.4 |
| 20260502104843 | 69 | 145 | 0.0 | 0.0 | 0.00 | 0.00 | 0.00 | 93 | 1010.4 |
| 20260502104334 | 69 | 147 | 0.0 | 0.0 | 0.00 | 0.00 | 0.00 | 93 | 1010.5 |
| 20260502104127 | 69 | 147 | 0.0 | 0.0 | 0.00 | 0.00 | 0.00 | 93 | 1010.5 |
| 20260502103628 | 68 | 147 | 0.0 | 1.7 | 0.00 | 0.00 | 0.00 | 92 | 1010.5 |
| 20260502103128 | 68 | 147 | 0.0 | 1.7 | 0.00 | 0.00 | 0.00 | 92 | 1010.6 |
| 20260502102648 | 68 | 148 | 0.0 | 0.0 | 0.00 | 0.00 | 0.00 | 92 | 1010.8 |
| 20260502102349 | 68 | 148 | 0.0 | 0.0 | 0.00 | 0.00 | 0.00 | 92 | 1010.8 |
| 20260502101331 | 68 | 148 | 0.0 | 0.0 | 0.00 | 0.00 | 0.00 | 92 | 1010.7 |
| 20260502101122 | 68 | 148 | 0.0 | 0.0 | 0.00 | 0.00 | 0.00 | 92 | 1010.7 |
| 20260502100334 | 68 | 148 | 0.0 | 0.0 | 0.00 | 0.00 | 0.00 | 92 | 1010.7 |
| 20260502090327 | 69 | 149 | 0.0 | 0.9 | 0.00 | 0.00 | 0.00 | 92 | 1010.9 |
| 20260502071242 | 68 | 257 | 0.0 | 0.0 | 0.00 | 0.00 | 0.00 | 93 | 1010.7 |
| 20260502071033 | 68 | 257 | 0.0 | 0.0 | 0.00 | 0.00 | 0.00 | 93 | 1010.7 |
| 20260502070240 | 68 | 257 | 0.0 | 0.0 | 0.00 | 0.00 | 0.00 | 92 | 1010.7 |
| 20260502065740 | 68 | 257 | 0.0 | 0.0 | 0.00 | 0.00 | 0.00 | 92 | 1010.7 |
| 20260502065239 | 68 | 257 | 0.0 | 0.0 | 0.00 | 0.00 | 0.00 | 92 | 1010.9 |
| 20260502064737 | 68 | 257 | 0.0 | 0.0 | 0.00 | 0.00 | 0.00 | 92 | 1010.8 |
| 20260502064238 | 68 | 0.0 | 0.0 | 0.00 | 0.00 | 0.00 | 92 | 1010.9 | |
| 20260502063737 | 68 | 257 | 0.0 | 0.0 | 0.00 | 0.00 | 0.00 | 92 | 1011.0 |
| 20260502063236 | 68 | 257 | 0.0 | 0.0 | 0.00 | 0.00 | 0.00 | 92 | 1011.0 |
| 20260502063030 | 68 | 257 | 0.0 | 0.0 | 0.00 | 0.00 | 0.00 | 92 | 1011.1 |
| 20260502062235 | 68 | 257 | 0.0 | 0.0 | 0.00 | 0.00 | 0.00 | 92 | 1011.0 |
| 20260502061733 | 69 | 257 | 0.0 | 0.0 | 0.00 | 0.00 | 0.00 | 92 | 1011.1 |
| 20260502061230 | 69 | 257 | 0.0 | 0.0 | 0.00 | 0.00 | 0.00 | 92 | 1011.2 |
| 20260502060732 | 69 | 257 | 0.0 | 0.0 | 0.00 | 0.00 | 0.00 | 92 | 1011.2 |
| 20260502060231 | 69 | 257 | 0.0 | 0.0 | 0.00 | 0.00 | 0.00 | 92 | 1011.2 |
| 20260502055738 | 69 | 257 | 0.0 | 0.0 | 0.00 | 0.00 | 0.00 | 92 | 1011.1 |
| 20260502055232 | 69 | 257 | 0.0 | 0.0 | 0.00 | 0.00 | 0.00 | 92 | 1011.2 |
| 20260502054730 | 69 | 257 | 0.0 | 0.0 | 0.00 | 0.00 | 0.00 | 92 | 1011.4 |
| 20260502054401 | 69 | 257 | 0.0 | 0.0 | 0.00 | 0.00 | 0.00 | 92 | 1011.6 |
| 20260502054324 | 69 | 257 | 0.0 | 0.0 | 0.00 | 0.00 | 0.00 | 92 | 1011.4 |
| 20260502053228 | 69 | 257 | 0.0 | 0.0 | 0.00 | 0.00 | 0.00 | 91 | 1011.6 |
| 20260502053130 | 69 | 257 | 0.0 | 0.0 | 0.00 | 0.00 | 0.00 | 91 | 1011.7 |
| 20260502052800 | 69 | 257 | 0.0 | 0.0 | 0.00 | 0.00 | 0.00 | 92 | 1011.9 |
| 20260502051717 | 69 | 257 | 0.0 | 0.0 | 0.00 | 0.00 | 0.00 | 91 | 1011.8 |
| 20260502051213 | 69 | 257 | 0.0 | 0.0 | 0.00 | 0.00 | 0.00 | 91 | 1011.8 |
| 20260502050714 | 69 | 257 | 0.0 | 0.0 | 0.00 | 0.00 | 0.00 | 91 | 1011.9 |
| 20260502050211 | 69 | 257 | 0.0 | 0.0 | 0.00 | 0.00 | 0.00 | 91 | 1011.8 |
| 20260502050013 | 69 | 257 | 0.0 | 0.0 | 0.00 | 0.00 | 0.00 | 91 | 1012.0 |
| 20260502045207 | 69 | 257 | 0.0 | 0.0 | 0.00 | 0.00 | 0.00 | 90 | 1011.9 |
| 20260502044704 | 69 | 257 | 0.0 | 0.0 | 0.00 | 0.00 | 0.00 | 90 | 1011.9 |
| 20260502044204 | 69 | 257 | 0.0 | 0.0 | 0.00 | 0.00 | 0.00 | 90 | 1011.8 |
| 20260502043705 | 69 | 257 | 0.0 | 0.0 | 0.00 | 0.00 | 0.00 | 90 | 1011.9 |
| 20260502043204 | 69 | 257 | 0.0 | 0.0 | 0.00 | 0.00 | 0.00 | 90 | 1011.9 |
| 20260502042704 | 69 | 257 | 0.0 | 0.0 | 0.00 | 0.00 | 0.00 | 90 | 1011.8 |
| 20260502042204 | 69 | 257 | 0.0 | 0.0 | 0.00 | 0.00 | 0.00 | 89 | 1011.8 |
| 20260502041704 | 69 | 257 | 0.0 | 0.0 | 0.00 | 0.00 | 0.00 | 89 | 1011.8 |
| 20260502041202 | 70 | 257 | 0.0 | 0.0 | 0.00 | 0.00 | 0.00 | 90 | 1011.8 |
| 20260502040704 | 70 | 257 | 0.0 | 0.0 | 0.00 | 0.00 | 0.00 | 90 | 1011.8 |
| 20260502040201 | 70 | 257 | 0.0 | 0.0 | 0.00 | 0.00 | 0.00 | 89 | 1011.9 |
| 20260502035940 | 70 | 257 | 0.0 | 0.0 | 0.00 | 0.00 | 0.00 | 89 | 1011.9 |
| 20260502035150 | 70 | 257 | 0.0 | 0.0 | 0.00 | 0.00 | 0.00 | 90 | 1011.9 |
| 20260502035023 | 70 | 257 | 0.0 | 0.0 | 0.00 | 0.00 | 0.00 | 89 | 1011.8 |
| 20260502035016 | 70 | 257 | 0.0 | 0.0 | 0.00 | 0.00 | 0.00 | 89 | 1011.8 |